Погода в Коркмаскала

Россия / Республика Дагестан     43°01′29″N   47°17′25″E
темп.,
°C
ветер,
м/с
пор.,
м/с
влажн.,
%
обл.,
%
осадки,
мм/ч
давл.,
гПа
погр.,
м
25 июня, сб
сб2500:00+20юв227678 0.1 100964
03:00+18юв22817 0.1 100926
06:00+20юв117279 0.0 1009223
09:00+23св1160100 0.0 1009934
12:00+26св435274 0.0 10091355
15:00+26всв435092 0.0 10081201
18:00+23ссв3361100 0.4 1009473
21:00+21сз1270100 0.4 100931
26 июня, вс
вс2600:00+21сз2267100 0.0 100826
03:00+20ю1174100 0.1 100829
06:00+21сз357595 0.0 1008254
09:00+25ссз4452100 0.0 1008851
12:00+27ссз3347100 0.0 10071149
15:00+29с4439100 0.0 10051719
18:00+27с3446100 0.3 1006243
21:00+23сз4866100 1.3 1008185
27 июня, пн
пн2700:00+22зсз5770100 0.3 1008187
03:00+20сз510780 0.3 1008236
06:00+22з48660 0.0 1009372
09:00+27сз1010500 0.0 10091013
12:00+29ссз89482 0.0 10091381
15:00+30ссв774396 0.0 10091479
18:00+27с564799 0.0 1010663
21:00+23сз586299 0.0 1011210
28 июня, вт
вт2800:00+21зсз5965100 0.0 1010203
03:00+20зсз5865100 0.0 1010147
06:00+22сз69572 0.0 1009496
09:00+26сз89420 0.0 10091198
12:00+31ссз88290 0.0 10081921
15:00+30ссв109360 0.0 10081876
18:00+27ссв67400 0.0 10101062
21:00+22з225229 0.1 101127
29 июня, ср
ср2900:00+21зюз2255100 0.1 101227
03:00+21з225499 0.1 101120
06:00+23сз23460 0.0 1012140
09:00+27сз55350 0.0 1012956
12:00+30с33250 0.0 10112138
15:00+27всв865323 0.0 1011992
18:00+23всв546949 0.0 1013811
21:00+21всв3480100 0.1 1014454